Temperature
22 21 21 20 19 19 20 22 24 24 25 25 25 24 23 22 22 21 20 20 21 21 20 20 20 20 20 20 20 20 20 19 19 19 19 19 19 19 19 18 18 18 18 18 18 18 18 18 18
22 21 21 20 19 20 21 23 24 25 25 25 24 23 22 21 21 20 20 21 21 21 21 20 20 20 20 20 20 20 19 19 19 19 19 19 19 19 19 18 18 18 18 18 18 18 18 18 18
22 21 21 19 20 21 23 24 25 25 26 25 24 23 22 21 20 20 21 21 21 21 21 20 20 20 20 20 20 19 19 19 19 19 19 19 19 19 19 18 18 18 18 19 19 19 18 18 18
22 21 21 19 21 23 25 25 26 26 26 25 23 22 22 21 21 21 21 20 21 21 21 20 20 20 20 20 19 19 19 19 19 19 19 19 19 18 18 18 18 18 18 19 19 19 18 18 18
22 21 20 20 22 26 27 27 26 25 25 24 23 21 21 21 21 21 21 20 20 20 20 20 20 20 20 20 19 19 19 19 19 19 19 19 18 18 18 18 18 18 18 18 18 18 18 18 18
22 21 20 21 24 27 27 27 27 25 24 23 22 21 20 20 21 20 20 20 20 20 20 20 20 20 20 20 19 19 19 19 19 19 18 18 18 18 18 18 18 18 18 18 18 18 18 18 18
22 20 21 23 25 27 27 27 26 25 24 23 23 20 20 19 20 20 20 20 20 20 20 20 20 20 20 20 19 19 19 19 19 18 18 18 18 18 18 18 18 18 18 18 18 18 18 18 18
24 21 22 23 25 27 28 27 26 25 24 23 23 21 20 19 20 20 20 20 20 20 20 20 20 20 19 19 19 19 19 19 18 18 18 18 18 18 18 18 18 18 18 18 18 18 18 18 18
25 21 21 24 26 27 27 27 26 25 24 23 23 22 21 20 20 19 19 19 19 19 20 20 19 19 19 19 19 19 19 18 18 18 18 18 18 18 18 18 18 18 18 18 18 18 18 18 18
25 21 23 26 27 27 28 27 26 24 23 22 22 22 21 20 20 19 19 19 19 19 19 19 19 19 19 19 19 19 18 18 18 18 18 18 18 17 17 17 17 17 17 17 17 17 17 17 17
25 23 26 27 28 28 27 27 26 24 22 22 22 21 20 20 19 19 19 19 19 19 19 19 19 19 19 19 19 18 18 18 18 18 18 17 17 17 17 17 17 17 17 17 17 17 17 17 17
26 26 28 28 29 28 28 27 25 24 24 24 23 22 21 20 20 19 19 19 19 19 19 19 19 19 19 19 19 18 18 18 18 18 18 17 17 17 17 17 17 17 17 17 17 17 17 17 17
27 27 29 29 29 28 28 26 25 24 24 23 22 22 21 21 20 20 20 19 19 19 19 19 19 19 19 19 19 18 18 18 18 18 18 17 17 17 17 17 17 16 16 16 16 16 16 17 17
27 27 27 28 28 28 26 25 24 23 23 22 21 21 21 21 20 19 19 19 19 19 19 19 19 19 19 19 19 18 18 18 18 18 18 17 17 17 17 17 16 16 16 16 16 16 16 16 16
28 26 26 26 27 26 26 24 24 23 22 21 20 20 21 20 20 20 20 19 19 19 19 19 19 19 19 19 18 18 18 18 18 18 18 17 17 17 17 16 16 16 16 16 16 16 16 16 16
26 25 24 26 26 26 25 23 23 23 22 21 21 20 20 20 20 20 20 20 20 19 19 19 19 19 19 18 18 18 18 18 18 18 18 17 17 17 16 16 16 16 16 16 16 16 16 16 16
24 23 25 26 27 26 24 23 23 22 21 21 21 20 20 20 20 20 20 20 20 19 19 19 19 19 18 18 18 18 18 18 18 18 18 17 17 17 16 16 16 16 16 16 16 16 16 16 16
23 24 25 26 26 26 24 23 22 22 21 21 21 20 20 20 20 20 20 19 19 19 19 19 19 19 18 18 18 18 18 18 18 18 17 17 17 16 16 16 16 15 15 15 15 15 16 16 16
26 26 25 26 27 25 24 23 22 22 21 21 20 20 20 20 20 19 19 19 19 19 19 19 19 18 18 18 18 18 18 18 18 17 17 17 17 16 16 16 15 15 15 15 15 15 15 16 16
26 26 26 26 26 25 23 22 22 22 21 21 20 20 20 19 19 19 19 19 19 19 19 19 19 18 18 18 18 18 18 18 17 17 17 17 16 16 16 15 15 15 15 15 15 15 15 15 16
27 26 26 26 25 23 23 22 21 21 21 21 21 21 20 20 19 19 19 19 19 19 19 19 19 18 18 18 18 18 18 17 17 17 17 16 16 16 16 15 15 15 15 15 15 15 15 15 15
25 27 27 26 23 21 22 21 21 20 20 21 20 20 20 20 19 19 19 19 19 19 19 19 18 18 18 18 18 18 18 17 17 17 17 16 16 16 16 15 15 15 15 15 15 15 15 15 15
26 27 26 24 22 20 20 20 20 19 20 20 20 20 20 20 20 20 19 19 19 19 19 18 18 18 18 18 18 18 18 18 17 17 17 16 16 16 16 15 15 15 15 15 15 15 15 15 15
27 25 23 20 19 20 20 20 19 18 19 20 20 21 20 20 20 20 19 19 19 18 18 18 18 18 18 18 18 18 18 17 17 17 17 16 16 16 16 15 15 15 15 15 15 15 15 15 15
26 22 21 21 19 20 19 19 19 20 20 20 21 21 21 21 20 20 19 19 19 18 18 18 18 18 18 18 18 18 17 17 17 17 17 17 16 16 16 16 15 15 15 15 15 15 15 15 15
25 23 21 21 20 19 19 19 19 21 21 21 22 22 21 21 20 20 20 19 19 18 18 18 18 18 18 18 18 18 17 17 17 17 17 17 17 17 16 16 16 15 15 15 15 15 15 14 14
25 23 22 20 20 19 19 19 20 20 21 21 21 21 21 21 21 20 20 20 19 19 19 18 18 18 18 18 18 18 18 17 17 17 17 17 17 17 16 16 16 15 15 15 15 15 15 14 14
25 23 20 20 20 20 20 19 19 20 20 21 20 21 21 21 21 21 20 20 20 19 19 19 19 19 18 18 18 18 18 18 18 17 17 17 17 17 16 16 16 16 15 15 15 15 15 14 14
24 23 20 18 19 19 19 19 20 20 20 20 20 21 21 21 21 21 21 20 20 19 19 19 19 19 18 18 18 18 18 18 17 17 17 17 17 17 17 16 16 16 16 16 15 15 15 15 15
23 22 20 20 19 18 18 19 21 19 19 20 20 21 21 21 22 21 21 20 20 19 19 19 19 19 19 19 18 18 18 18 18 18 17 17 17 17 17 17 16 16 16 16 16 16 16 15 15
Wind_Speed
8 6 2 1 2 2 3 4 3 3 1 4 7 9 9 5 4 4 5 13 19 18 19 22 23 22 22 21 20 20 19 18 17 17 16 16 16 16 15 15 14 14 14 13 12 12 12 12 12
4 4 2 1 2 1 4 5 4 4 5 9 9 9 8 5 5 9 7 15 19 18 19 21 23 22 22 21 20 19 19 18 17 16 16 16 15 15 15 14 14 13 13 12 12 11 11 11 11
3 3 2 1 2 4 4 5 6 3 6 6 6 6 5 6 7 7 10 18 17 15 18 22 24 23 22 21 20 19 18 18 17 16 16 15 15 14 14 14 13 13 12 12 11 10 10 9 10
2 2 1 1 7 8 6 6 6 6 4 5 7 7 4 3 5 11 17 17 16 13 17 22 24 23 22 21 20 19 18 17 16 16 15 15 14 14 13 13 12 12 12 11 10 9 8 8 8
2 2 0 4 7 6 5 8 7 6 5 6 8 7 3 3 12 19 18 17 16 13 15 20 23 23 22 21 19 18 18 17 16 15 14 14 14 13 12 12 12 11 11 10 9 8 7 6 6
1 2 1 4 4 2 2 6 8 9 8 7 8 7 3 6 15 17 15 15 15 15 13 18 22 22 21 20 19 18 17 16 15 14 14 13 13 12 12 11 11 10 10 9 8 7 5 4 4
3 1 4 5 4 2 2 6 8 8 8 7 8 7 5 7 12 15 14 14 13 12 12 13 17 19 20 20 19 18 17 16 15 14 13 13 12 11 11 10 10 9 9 8 7 6 4 2 3
5 0 5 4 3 2 1 3 6 8 7 8 7 8 8 10 13 15 14 13 13 11 10 9 12 14 15 16 18 17 16 15 14 14 13 12 11 11 10 9 8 8 7 7 6 5 3 2 0
3 1 6 5 3 2 2 4 3 6 7 5 4 5 12 18 17 17 14 11 11 12 9 8 8 10 12 13 15 16 15 14 13 12 12 11 9 8 8 8 7 7 6 6 5 4 3 2 1
6 5 9 6 4 2 2 5 6 6 6 5 7 9 16 17 18 19 18 16 13 13 12 10 9 9 10 11 12 11 11 11 10 9 9 8 7 7 7 7 7 6 5 5 4 3 2 1 0
6 8 8 6 4 2 2 2 4 9 5 8 13 15 15 15 15 17 17 16 14 13 12 11 10 9 8 6 9 8 8 8 8 7 7 7 6 5 5 4 3 4 4 3 2 2 2 2 2
6 9 7 5 3 1 3 3 4 5 8 12 17 19 16 14 13 15 15 14 13 13 11 11 11 9 7 8 7 6 6 5 5 7 8 8 5 4 4 3 3 3 3 2 2 2 2 2 3
4 5 5 4 2 1 3 3 4 4 8 14 16 15 14 13 12 12 13 13 13 12 11 10 10 10 7 6 5 6 5 6 7 8 9 10 5 3 3 3 3 3 4 3 2 2 1 1 2
6 6 6 5 4 1 3 1 4 5 11 14 15 13 13 13 13 12 13 12 13 12 11 10 10 10 8 7 6 5 7 8 9 9 11 11 8 5 4 3 3 3 3 3 3 2 2 1 1
5 7 9 6 3 0 4 2 3 8 13 14 14 13 12 11 12 14 14 14 14 14 11 11 11 10 10 8 7 7 8 9 8 9 11 11 9 7 5 3 2 2 4 5 4 4 3 2 1
6 5 5 8 3 3 5 6 5 8 12 11 11 12 12 11 12 12 12 12 13 13 11 11 11 10 9 8 6 6 8 9 8 10 10 10 10 9 6 3 3 4 5 4 3 3 3 3 2
4 4 7 8 5 4 5 5 2 7 10 10 10 11 12 11 10 9 11 12 13 13 12 9 9 10 9 9 7 7 8 8 9 10 9 9 10 10 7 4 3 6 5 3 3 3 2 2 1
9 7 7 8 4 4 4 3 3 8 10 10 10 10 11 12 10 10 10 10 11 12 12 11 10 9 9 8 7 6 6 5 7 7 8 9 9 9 7 4 4 6 4 3 3 3 3 1 1
11 11 10 7 2 2 2 3 4 6 8 9 9 9 11 10 8 9 11 11 11 11 11 11 11 9 9 7 7 7 6 5 5 5 9 9 9 8 7 4 4 4 4 3 3 2 3 3 2
13 10 7 3 2 3 1 1 4 7 8 10 11 11 11 10 9 10 11 11 12 12 12 12 11 10 9 7 6 6 6 5 5 4 6 9 9 8 7 5 4 4 4 4 4 3 2 2 2
11 7 5 3 1 5 4 3 2 3 3 6 8 10 11 14 14 14 13 12 12 12 13 13 12 11 10 9 6 6 5 4 3 4 4 5 9 8 8 7 5 4 4 3 3 3 4 2 3
9 7 3 0 3 3 3 2 5 3 3 5 7 9 11 12 12 12 13 13 13 13 12 11 11 11 10 9 9 10 7 6 6 5 5 5 7 8 9 8 7 5 4 4 3 4 3 4 2
8 5 1 2 4 3 4 2 7 4 3 5 7 10 11 12 13 14 14 14 13 12 12 11 11 10 10 9 11 10 7 5 4 5 6 5 4 6 8 8 6 5 4 4 4 4 4 3 3
6 3 6 6 6 3 2 1 6 3 5 5 6 9 11 12 12 12 12 10 9 10 11 11 12 10 10 10 10 10 9 8 7 6 7 5 4 4 5 7 6 5 4 5 4 4 5 3 3
4 3 5 6 5 3 2 2 7 8 7 6 7 9 11 12 12 11 11 11 11 12 12 12 13 11 10 10 10 10 10 10 10 9 8 7 5 4 6 6 6 5 5 5 4 4 4 3 3
7 6 6 5 5 3 2 4 7 8 6 5 5 8 10 12 12 14 14 14 13 14 13 13 13 12 12 11 10 9 9 7 7 8 8 8 7 7 7 7 7 7 7 6 5 3 3 3 3
4 4 7 7 2 1 3 5 7 5 5 3 4 7 10 13 14 14 14 14 14 14 14 14 14 12 12 11 10 9 9 8 8 8 8 7 7 7 8 8 8 7 6 6 6 4 4 4 3
5 5 5 5 4 2 2 4 5 5 5 3 3 6 9 10 12 13 13 13 13 13 12 12 12 12 11 11 10 10 9 8 8 7 8 8 8 7 8 9 9 9 7 7 6 4 4 5 4
1 2 4 4 5 6 4 6 6 7 5 4 4 5 8 9 10 11 12 12 12 11 11 12 12 11 11 11 10 9 8 8 8 8 8 8 7 8 10 10 10 10 9 8 7 6 6 6 5
5 6 7 5 3 4 5 6 5 6 6 5 4 4 7 8 9 10 11 11 11 11 11 12 12 12 11 11 10 9 8 8 8 8 8 8 8 9 10 10 10 10 10 9 9 9 8 7 7
Wind_Direction
190 193 182 44 35 25 278 262 225 218 176 102 106 105 106 102 139 157 134 142 139 141 144 141 137 134 132 130 128 126 125 123 121 118 116 116 114 113 112 111 110 109 109 108 106 104 99 96 94
185 192 174 60 98 299 264 234 229 210 146 116 99 96 88 76 92 115 128 142 139 140 141 141 138 136 134 133 131 131 130 128 126 124 122 119 118 117 116 115 114 113 111 111 109 106 100 97 93
212 195 157 139 204 209 237 228 202 174 154 131 103 77 93 117 124 133 143 140 136 137 139 142 139 138 136 136 135 135 134 132 131 128 127 124 122 121 120 119 118 116 115 114 112 108 101 96 91
175 101 74 203 250 247 221 212 182 148 126 99 110 95 91 105 144 143 140 139 135 135 138 142 140 139 138 139 139 138 137 137 135 132 130 128 125 125 125 123 121 119 119 118 116 111 105 96 86
123 108 11 273 261 258 208 188 164 131 123 107 109 107 82 38 125 135 140 141 138 136 137 142 142 142 142 142 142 142 142 141 139 137 134 132 130 130 129 127 125 124 123 122 120 115 109 99 84
51 112 205 272 286 302 156 152 127 109 113 114 111 115 102 122 131 139 142 139 139 138 136 142 144 144 144 144 145 145 145 145 144 142 140 138 137 134 132 132 132 132 130 130 128 124 116 100 78
167 191 236 258 282 284 146 138 127 131 132 139 130 119 122 130 138 139 137 134 139 142 141 143 147 148 148 148 149 149 150 150 149 146 145 145 144 142 142 141 141 141 141 140 137 135 132 113 74
179 114 289 286 276 268 170 117 124 128 130 131 128 136 151 156 142 136 132 135 142 144 144 142 145 147 149 151 153 153 154 154 153 152 152 152 153 153 153 152 151 150 151 152 149 150 157 154 91
177 234 267 264 248 251 150 120 113 105 112 115 116 136 146 145 137 134 132 135 147 148 147 146 145 147 149 153 157 157 157 159 158 159 160 158 158 162 165 166 165 162 160 162 164 166 173 179 259
161 198 242 233 213 180 147 141 142 118 111 102 95 109 132 139 142 144 147 150 159 159 161 159 155 154 156 160 154 158 160 163 165 168 164 163 170 178 176 179 177 171 165 167 174 179 181 183 258
197 212 244 250 237 160 125 119 126 131 145 165 150 146 145 144 146 148 150 158 165 165 165 164 162 162 162 152 158 161 162 167 171 170 161 156 157 161 160 156 167 169 165 154 158 152 146 134 154
244 253 254 256 251 160 146 139 120 147 179 167 157 151 151 149 150 153 154 163 162 163 166 166 164 164 161 153 159 163 162 162 158 157 153 140 132 128 128 132 150 146 144 142 148 143 149 144 148
268 272 284 289 298 169 118 125 140 162 147 149 151 149 152 151 153 154 154 158 157 160 163 164 162 162 159 151 159 162 163 156 150 138 137 136 126 122 119 118 121 126 133 137 136 141 141 134 136
287 310 307 299 295 333 95 106 125 166 145 148 156 160 161 156 160 158 157 158 156 159 165 162 160 159 155 153 152 153 152 149 138 126 126 125 120 119 117 108 96 96 106 116 124 116 103 117 135
320 328 317 292 273 226 81 337 214 157 148 154 164 163 160 157 162 168 166 163 160 159 163 162 159 158 151 148 152 149 148 141 129 126 124 118 114 112 113 108 93 79 91 95 85 69 66 72 74
336 323 288 278 234 184 125 253 253 148 152 158 163 163 165 168 172 171 164 162 158 154 156 162 162 156 148 147 147 142 142 135 130 129 125 118 112 112 106 100 84 79 89 87 83 64 59 53 56
325 274 272 284 235 169 156 228 224 144 150 164 173 171 169 175 180 171 166 160 156 156 155 156 156 155 150 147 141 136 137 138 138 133 129 122 116 117 111 99 90 91 83 74 84 69 79 68 42
271 281 282 279 249 161 171 215 169 157 161 179 184 180 174 179 184 171 167 162 160 160 161 158 158 155 145 135 127 125 127 136 140 138 138 132 125 121 113 106 96 99 90 75 68 61 52 72 47
261 274 282 285 261 127 163 170 183 168 170 177 181 183 178 178 175 168 168 170 168 162 164 162 161 159 146 141 143 143 148 153 149 152 151 144 137 127 117 110 97 100 101 100 86 68 49 28 37
271 278 282 311 14 107 124 142 196 182 190 186 183 183 176 166 168 176 174 175 177 169 168 163 164 163 157 156 155 150 150 158 159 153 155 153 144 138 128 122 121 116 105 81 69 69 67 22 45
279 259 249 245 18 44 77 1 304 253 219 198 188 182 175 174 177 180 180 183 178 175 174 173 170 168 165 158 140 128 113 108 118 149 166 166 152 145 137 137 129 121 120 114 97 87 91 60 16
283 271 227 161 64 359 42 315 294 292 267 212 198 188 185 179 177 179 183 183 183 184 176 171 172 168 167 159 153 154 157 165 183 176 174 174 164 155 150 146 136 127 130 134 124 99 101 102 50
273 281 357 66 90 51 20 57 300 339 306 255 213 199 191 181 180 183 185 185 184 181 177 174 172 171 170 167 163 162 164 170 169 162 163 172 172 168 163 156 143 136 138 141 126 112 104 107 110
277 6 28 45 67 32 302 159 284 270 257 268 223 202 196 184 183 184 183 177 179 180 179 175 172 177 176 172 168 169 173 171 164 167 172 179 180 179 177 167 157 152 148 153 149 135 125 121 115
312 64 13 356 12 260 239 185 255 253 257 249 226 205 194 187 182 181 178 179 179 181 183 180 177 182 181 176 176 179 180 175 176 176 179 180 181 190 194 174 166 161 167 168 158 144 141 142 138
260 161 175 214 221 247 243 239 258 266 270 263 228 200 190 188 186 184 185 184 185 185 183 182 183 186 184 183 183 182 179 177 179 179 179 188 191 194 188 181 177 175 174 174 164 157 168 163 166
239 241 178 146 143 143 245 285 300 298 303 280 215 192 195 192 189 187 186 186 187 186 185 185 185 185 187 186 181 185 184 179 182 184 184 191 196 197 189 184 181 179 176 175 167 173 186 179 189
183 168 91 110 151 204 245 254 248 266 265 274 224 199 199 193 189 186 186 189 188 187 185 183 183 186 187 188 188 193 194 190 188 188 194 196 199 195 183 184 183 183 181 176 173 178 187 183 196
189 117 123 131 151 156 205 249 225 219 225 223 219 203 188 184 185 187 188 187 184 183 183 185 187 187 188 191 193 196 196 197 194 196 201 198 195 190 186 185 183 185 188 184 182 191 190 196 207
173 169 146 151 203 164 175 248 233 202 204 207 206 188 176 181 182 184 185 181 180 183 185 188 188 191 193 193 194 199 199 198 200 205 204 195 193 190 186 183 185 191 193 191 191 199 201 202 211
Height
1519 1519 1520 1520 1521 1525 1526 1515 1506 1502 1499 1498 1498 1500 1503 1507 1511 1518 1515 1516 1520 1524 1528 1531 1533 1535 1536 1538 1539 1539 1540 1541 1542 1543 1544 1544 1545 1546 1547 1548 1548 1549 1550 1550 1551 1551 1552 1552 1553
1519 1520 1521 1520 1525 1533 1525 1508 1503 1498 1497 1497 1499 1501 1503 1508 1508 1510 1512 1517 1521 1524 1528 1531 1534 1536 1537 1538 1539 1540 1541 1542 1543 1543 1544 1545 1546 1547 1548 1549 1549 1550 1551 1551 1552 1552 1553 1554 1554
1519 1519 1520 1521 1524 1526 1517 1502 1498 1495 1496 1496 1499 1503 1505 1508 1509 1510 1513 1517 1521 1525 1528 1531 1534 1536 1538 1539 1540 1541 1542 1542 1543 1544 1545 1546 1547 1548 1549 1549 1550 1551 1552 1552 1553 1554 1555 1555 1556
1519 1519 1520 1523 1522 1509 1502 1498 1494 1494 1496 1496 1499 1504 1506 1509 1509 1510 1513 1517 1522 1525 1529 1532 1534 1536 1538 1540 1541 1542 1543 1543 1544 1545 1546 1547 1547 1548 1549 1550 1551 1552 1552 1553 1554 1555 1556 1557 1558
1517 1517 1521 1523 1513 1498 1492 1492 1491 1493 1495 1497 1498 1504 1508 1510 1509 1512 1515 1518 1522 1526 1529 1532 1535 1537 1538 1540 1541 1542 1543 1544 1545 1545 1546 1547 1548 1549 1550 1551 1552 1552 1553 1554 1555 1556 1557 1558 1559
1517 1517 1525 1525 1508 1495 1491 1490 1490 1493 1496 1497 1499 1504 1510 1511 1511 1513 1516 1520 1524 1527 1530 1533 1536 1538 1539 1540 1542 1543 1544 1544 1545 1546 1547 1548 1549 1550 1551 1551 1552 1553 1554 1555 1556 1557 1558 1559 1560
1517 1518 1521 1514 1506 1496 1490 1489 1489 1492 1494 1496 1498 1503 1508 1512 1513 1515 1518 1521 1525 1528 1531 1533 1536 1538 1540 1541 1542 1543 1544 1545 1546 1547 1547 1548 1549 1550 1551 1552 1553 1553 1554 1555 1556 1557 1559 1560 1561
1513 1515 1516 1511 1504 1497 1490 1489 1489 1490 1493 1496 1497 1500 1505 1509 1512 1515 1518 1521 1525 1528 1531 1533 1536 1538 1540 1541 1543 1543 1544 1545 1546 1547 1548 1549 1550 1551 1551 1552 1553 1554 1554 1555 1556 1557 1559 1560 1561
1512 1518 1519 1508 1500 1493 1488 1488 1490 1491 1492 1494 1495 1497 1500 1506 1509 1513 1517 1521 1525 1528 1531 1533 1535 1538 1540 1541 1542 1544 1545 1546 1547 1548 1549 1550 1550 1551 1552 1552 1553 1553 1554 1555 1556 1557 1558 1559 1560
1506 1516 1507 1495 1490 1488 1487 1486 1488 1491 1493 1494 1496 1498 1502 1505 1507 1509 1513 1518 1523 1526 1530 1533 1535 1537 1539 1541 1542 1543 1545 1546 1547 1548 1549 1550 1550 1551 1552 1552 1553 1553 1554 1555 1556 1556 1558 1559 1560
1500 1502 1493 1488 1485 1485 1485 1486 1487 1489 1493 1492 1493 1497 1501 1504 1507 1508 1512 1517 1521 1525 1528 1532 1534 1537 1539 1540 1542 1544 1545 1546 1547 1548 1549 1550 1550 1551 1551 1552 1552 1553 1554 1555 1555 1556 1557 1559 1560
1496 1491 1488 1486 1484 1483 1483 1485 1486 1486 1488 1489 1491 1493 1498 1502 1506 1508 1510 1516 1520 1523 1527 1530 1533 1536 1538 1540 1541 1543 1545 1546 1547 1548 1549 1550 1550 1551 1551 1551 1552 1553 1553 1554 1555 1556 1557 1558 1559
1492 1489 1486 1484 1483 1482 1482 1483 1485 1486 1486 1489 1492 1494 1497 1501 1504 1507 1510 1514 1518 1521 1525 1528 1531 1534 1536 1538 1540 1543 1545 1546 1547 1548 1549 1550 1550 1550 1550 1551 1552 1552 1553 1554 1555 1556 1557 1558 1559
1490 1488 1485 1483 1482 1481 1482 1484 1485 1487 1487 1490 1492 1493 1496 1499 1503 1506 1508 1512 1516 1519 1522 1526 1529 1532 1535 1537 1539 1542 1544 1546 1547 1547 1548 1549 1550 1550 1550 1550 1551 1551 1552 1553 1554 1555 1556 1557 1558
1490 1489 1486 1482 1480 1481 1482 1487 1484 1485 1487 1490 1492 1494 1496 1498 1501 1504 1506 1510 1513 1517 1521 1524 1528 1531 1534 1536 1538 1541 1543 1545 1546 1547 1548 1548 1549 1549 1549 1550 1550 1551 1552 1553 1554 1555 1556 1557 1557
1491 1495 1498 1483 1478 1480 1487 1495 1485 1486 1487 1489 1492 1494 1496 1497 1500 1503 1505 1508 1512 1515 1519 1523 1526 1529 1532 1535 1538 1540 1543 1544 1546 1546 1547 1548 1548 1548 1549 1549 1550 1550 1551 1552 1553 1554 1555 1556 1557
1500 1506 1499 1486 1476 1478 1484 1490 1485 1486 1488 1490 1491 1493 1494 1497 1500 1502 1504 1507 1510 1513 1517 1520 1523 1527 1531 1534 1537 1539 1542 1544 1545 1546 1546 1547 1547 1547 1548 1548 1549 1550 1551 1552 1552 1553 1554 1555 1556
1508 1502 1495 1488 1477 1478 1484 1487 1484 1483 1487 1488 1489 1491 1493 1495 1498 1500 1503 1505 1508 1511 1515 1518 1522 1525 1529 1533 1536 1538 1541 1543 1544 1545 1545 1546 1546 1547 1547 1548 1548 1549 1550 1551 1552 1553 1554 1555 1556
1494 1495 1493 1484 1474 1479 1485 1486 1484 1483 1485 1487 1489 1490 1492 1494 1497 1499 1501 1504 1506 1509 1513 1516 1520 1524 1527 1530 1533 1535 1538 1541 1543 1544 1545 1545 1546 1546 1547 1548 1548 1549 1550 1551 1551 1552 1553 1555 1556
1488 1492 1490 1483 1475 1480 1486 1487 1483 1483 1484 1484 1485 1488 1490 1493 1496 1498 1500 1501 1504 1506 1511 1514 1518 1523 1525 1529 1532 1534 1537 1540 1542 1543 1544 1545 1545 1546 1547 1547 1548 1549 1549 1550 1551 1552 1553 1554 1555
1485 1486 1485 1485 1482 1483 1487 1494 1488 1484 1483 1483 1484 1485 1488 1490 1493 1496 1498 1500 1502 1505 1509 1513 1517 1520 1524 1527 1530 1534 1536 1538 1540 1542 1543 1544 1545 1546 1546 1547 1548 1548 1549 1550 1551 1552 1553 1554 1555
1489 1475 1475 1478 1489 1501 1496 1510 1495 1487 1485 1484 1484 1485 1486 1489 1491 1494 1496 1498 1500 1503 1508 1511 1515 1519 1522 1525 1528 1530 1533 1535 1538 1540 1542 1544 1545 1545 1546 1547 1548 1548 1549 1550 1551 1552 1553 1554 1555
1478 1471 1474 1479 1491 1504 1502 1509 1503 1490 1489 1485 1483 1484 1485 1486 1489 1491 1494 1496 1499 1503 1506 1509 1513 1517 1520 1523 1526 1529 1532 1534 1537 1539 1541 1543 1544 1545 1546 1546 1547 1547 1548 1549 1550 1551 1552 1553 1554
1470 1474 1481 1489 1500 1515 1508 1512 1508 1495 1489 1484 1482 1482 1484 1485 1487 1490 1492 1496 1498 1501 1504 1507 1510 1514 1517 1521 1524 1527 1530 1532 1535 1537 1539 1541 1543 1544 1545 1546 1546 1547 1548 1549 1550 1550 1552 1553 1554
1471 1489 1509 1514 1522 1520 1507 1509 1505 1485 1480 1480 1479 1479 1481 1483 1485 1488 1491 1494 1496 1499 1501 1504 1508 1511 1514 1518 1521 1524 1527 1530 1532 1534 1537 1539 1541 1542 1543 1544 1545 1546 1547 1548 1549 1549 1550 1552 1553
1472 1483 1508 1520 1523 1520 1510 1510 1495 1479 1477 1476 1476 1477 1479 1481 1484 1486 1488 1491 1493 1496 1498 1501 1505 1508 1512 1515 1518 1522 1525 1527 1530 1532 1535 1537 1539 1540 1542 1543 1544 1545 1546 1547 1548 1548 1549 1550 1551
1471 1477 1480 1500 1508 1519 1514 1504 1489 1478 1476 1475 1475 1476 1477 1478 1481 1483 1486 1488 1491 1493 1495 1498 1502 1506 1509 1512 1516 1519 1522 1524 1527 1530 1532 1535 1537 1539 1540 1541 1543 1544 1544 1545 1546 1547 1548 1549 1550
1461 1468 1486 1499 1514 1521 1514 1508 1500 1484 1479 1476 1475 1475 1476 1477 1479 1481 1484 1486 1489 1491 1494 1497 1500 1503 1507 1510 1514 1517 1520 1523 1526 1528 1531 1533 1535 1537 1538 1540 1541 1542 1543 1544 1545 1546 1546 1547 1548
1465 1471 1481 1494 1500 1515 1520 1509 1481 1478 1475 1475 1473 1473 1474 1475 1477 1479 1482 1484 1487 1490 1493 1496 1499 1502 1505 1508 1511 1515 1518 1521 1524 1526 1529 1531 1533 1534 1536 1537 1538 1539 1541 1542 1542 1543 1544 1545 1546
1458 1466 1478 1494 1500 1501 1508 1502 1472 1472 1471 1471 1471 1471 1472 1474 1475 1477 1480 1483 1485 1488 1491 1493 1496 1500 1503 1506 1509 1513 1516 1519 1521 1524 1526 1528 1530 1531 1533 1534 1536 1537 1538 1539 1540 1541 1542 1543 1544